DMSP 5D-2 F11 DEB, 28308

Orbit data source: Space-Track

DMSP 5D-2 F11 DEB, 28308 is space debris in SSO originally from a launch on Thu, 28 Nov 1991 UTC launched from the Air Force Western Test Range (AFWTR). Debris objects in space refer to the collection of defunct objects orbiting the Earth. Examples of debris include non-operational satellites, rocket bodies, and fragments generated from explosions, collisions, or faulty payload assembly.

Loading next visibility...
Identifier
28308, 1991-082V
Orbit
SSO
Country
Flag of USUS
Related business
Manufacturer
Unknown
Mission
Spacecraft
Bus & Motor
Unknown
Mass
Unknown
Launch date (UTC)
1991-11-28 (35 years ago)
Launch vehicle
Unknown
Launch site
Air Force Western Test Range (AFWTR)
Object type
Payload
Rocket body
Debris
Shape & HBR
Unknown shape, 0.1 m
Radar Cross Section
Small (<0.1 m²)

Expand to show TLE details & history
Last TLE update: 20 hours ago

TLE from 20 hours ago
0 DMSP 5D-2 F11 DEB
1 28308U 91082V   26208.34417678  .00001025  00000-0  41183-3 0  9997
2 28308  98.5616 237.6138 0011285 261.2301 221.3048 14.30255258154926
Epoch: 2026-07-27T08:15Z
TLE epoch observation values (Epoch: 2026-07-27T08:15:36.873Z)
Latitude
56.65958°
Longitude
1.83834°
Altitude
806.413 km
Speed
7.452 km/s
True Right ascension
04h 43m 05s
True Declination
56° 30' 09"
Sunlit
Object was in daylight at epoch
Visualization orbit readout
Latitude
Unknown
Longitude
Unknown
Altitude
Unknown
Speed
Unknown
Apparent Right ascension
Unknown
Apparent Declination
Unknown
Sunlit
N/A
Visualization observer readout
Local Sidereal Time
17:12:04
Azimuth
Unknown
Elevation
Unknown
Doppler factor
Unknown
Orbital elements
Apogee altitude
796.103 km
Perigee altitude
779.929 km
Semi-major axis
7,166.153 km
Eccentricity
0.00113
Inclination
98.5616°
RAAN
237.6138°
Arg. of periapsis
261.2301°
True anomaly
221.21953°
Mean anomaly
221.3048°
Eccentric anomaly
221.26216°
Mean motion
3.57778 °/min
Orbital period
100.62 mins
BSTAR
0.00041183
Loading maneuver chart data...
Computing Atmospheric mass density...

Documentation

Showing up to 5 results
|